This is the latest recevied weather packets stored in our database for station/object K3CHZ. If no packets are shown the sender has not sent any weather packets the latest 10 day(s).
| Time | Temp. | Humidity | Pressure | Rain* | Wind** | Luminosity | Snow |
|---|---|---|---|---|---|---|---|
| 1777869142 | 5.56° C | 82% | 1015.9 hPa | 0 mm | - | - | - |
| 1777868837 | 5.56° C | 82% | 1015.9 hPa | 0 mm | - | - | - |
| 1777868536 | 5.56° C | 82% | 1015.8 hPa | 0 mm | - | - | - |
| 1777868237 | 5.56° C | 81% | 1015.8 hPa | 0 mm | - | - | - |
| 1777867937 | 5.56° C | 81% | 1015.8 hPa | 0 mm | - | - | - |
| 1777867638 | 5.56° C | 81% | 1015.7 hPa | 0 mm | - | - | - |
| 1777867336 | 5.56° C | 80% | 1015.7 hPa | 0 mm | - | - | - |
| 1777867036 | 5.56° C | 79% | 1015.8 hPa | 0 mm | - | - | - |
| 1777866736 | 5.56° C | 78% | 1015.6 hPa | 0 mm | - | - | - |
| 1777866437 | 6.11° C | 78% | 1015.6 hPa | 0 mm | - | - | - |
| 1777866138 | 6.11° C | 78% | 1015.6 hPa | 0 mm | - | - | - |
| 1777865836 | 6.11° C | 78% | 1015.6 hPa | 0 mm | - | - | - |
| 1777865537 | 6.11° C | 79% | 1015.5 hPa | 0 mm | - | - | - |
| 1777865238 | 6.11° C | 78% | 1015.4 hPa | 0 mm | - | - | - |
| 1777864939 | 6.11° C | 78% | 1015.4 hPa | 0 mm | - | - | - |
| 1777864640 | 6.11° C | 76% | 1015.3 hPa | 0 mm | - | - | - |
| 1777864341 | 6.11° C | 75% | 1015.2 hPa | 0 mm | - | - | - |
| 1777864040 | 6.67° C | 75% | 1015.1 hPa | 0 mm | - | - | - |
| 1777863740 | 6.67° C | 76% | 1015.2 hPa | 0 mm | - | - | - |
| 1777863440 | 6.67° C | 77% | 1015.2 hPa | 0 mm | - | - | - |
| 1777863142 | 6.67° C | 75% | 1015.2 hPa | 0 mm | - | - | - |
| 1777862841 | 6.67° C | 74% | 1015.1 hPa | 0 mm | - | - | - |
| 1777862539 | 7.22° C | 70% | 1015.2 hPa | 0 mm | - | - | - |
| 1777862240 | 7.22° C | 71% | 1015.1 hPa | 0 mm | - | - | - |
| 1777861940 | 7.22° C | 74% | 1015.2 hPa | 0 mm | - | - | - |
* Rain latest hour (hover to see other rain measurements)
** Current wind speed in m/s (hover to see current wind gust speed)